Rheinfels — V2AI4 — position and weather

sailwx.info

Track history (hours):
 
Tides and Currents Weather Stations Pressure Air Temp Water Temp Dewpoint Dewpoint Depression Visibility Wind Speed Wind Dir Waves Ship Positions

Rheinfels

Last reported at 2014-Sep-01 18:26 UTC. Time now 2014-Sep-01 21:14 UTC.
Position N 38°02' E 023°35'.

Length 89 m; draft 5.5 m.

Type: Cargo ship. MMSI: 304010767.

Date/timePositionNaut miles runAvg speedWind from/ knotsBaromVisibWave heightAir tempDewpointWater temp
2014-Sep-01 18:26N 38°02' E 023°35'0 0.0
2014-Sep-01 17:32N 38°02' E 023°35'2 0.4
2014-Sep-01 13:17N 38°01' E 023°34'5 6.7
2014-Sep-01 12:33N 37°56' E 023°36'8 7.7
2014-Sep-01 11:33N 37°49' E 023°40'8 8.2
2014-Sep-01 10:33N 37°42' E 023°45'  
2014-Aug-29 22:27N 36°39' E 014°32'8 9.0
2014-Aug-29 21:33N 36°41' E 014°22'9 8.9
2014-Aug-29 20:33N 36°43' E 014°12'46 8.6
2014-Aug-29 15:12N 36°55' E 013°16'9 8.8
2014-Aug-29 14:10N 36°57' E 013°05'130 8.8
2014-Aug-28 23:26N 37°31' E 010°28'8 9.2
2014-Aug-28 22:33N 37°32' E 010°17'9 9.2
2014-Aug-28 21:33N 37°33' E 010°06'9 9.2
2014-Aug-28 20:33N 37°34' E 009°54'9 9.2
2014-Aug-28 19:32N 37°34' E 009°43'28 9.1
2014-Aug-28 16:26N 37°36' E 009°07'99 9.1
2014-Aug-28 05:33N 37°35' E 007°02'9 9.1
2014-Aug-28 04:33N 37°34' E 006°51'10 9.0
2014-Aug-28 03:25N 37°34' E 006°38'19 8.6
2014-Aug-28 01:12N 37°33' E 006°14'6 8.1
2014-Aug-28 00:25N 37°34' E 006°06'18 8.1
2014-Aug-27 22:08N 37°34' E 005°42'22 8.1
2014-Aug-27 19:22N 37°33' E 005°14'49 7.9
2014-Aug-27 13:10N 37°32' E 004°13'5 8.7
2014-Aug-27 12:33N 37°32' E 004°06'11 8.9
2014-Aug-27 11:20N 37°32' E 003°52'7 9.0
2014-Aug-27 10:32N 37°32' E 003°43'9 8.9
2014-Aug-27 09:32N 37°32' E 003°32'20 9.6
2014-Aug-27 07:26N 37°32' E 003°07'10 9.2
2014-Aug-27 06:19N 37°31' E 002°54'7 8.8
2014-Aug-27 05:31N 37°31' E 002°45'9 9.0
2014-Aug-27 04:32N 37°30' E 002°34'9 9.0
2014-Aug-27 03:33N 37°30' E 002°23'9 8.8
2014-Aug-27 02:32N 37°30' E 002°11'20 9.0
2014-Aug-27 00:17N 37°30' E 001°46'7 9.1
2014-Aug-26 23:33N 37°30' E 001°38'9 8.8
2014-Aug-26 22:33N 37°29' E 001°26'9 9.0
2014-Aug-26 21:33N 37°29' E 001°15'9 9.1
2014-Aug-26 20:33N 37°29' E 001°04'9 8.8
2014-Aug-26 19:33N 37°29' E 000°53'9 8.7
2014-Aug-26 18:33N 37°29' E 000°42'9 8.8
2014-Aug-26 17:33N 37°29' E 000°31'9 8.9
2014-Aug-26 16:33N 37°29' E 000°19'9 8.9
2014-Aug-26 15:33N 37°29' E 000°08'9 8.8
2014-Aug-26 14:33N 37°28' W 000°03'9 8.9
2014-Aug-26 13:33N 37°28' W 000°14'9 8.9
2014-Aug-26 12:34N 37°28' W 000°25'9 8.9
2014-Aug-26 11:33N 37°29' W 000°37'10 8.7
2014-Aug-26 10:27N 37°31' W 000°49'4 0.1
2014-Aug-24 17:34N 37°32' W 000°54'147 9.6
2014-Aug-24 02:14N 38°36' E 001°54'9 9.7
2014-Aug-24 01:16N 38°41' E 002°05'19 9.9
2014-Aug-23 23:20N 38°50' E 002°26'8 9.8
2014-Aug-23 22:33N 38°53' E 002°35'10 9.7
2014-Aug-23 21:33N 38°58' E 002°46'10 9.6
2014-Aug-23 20:33N 39°02' E 002°57'9 9.5
2014-Aug-23 19:33N 39°06' E 003°08'  
Track history (hours):
 
Tides and Currents Weather Stations Pressure Air Temp Water Temp Dewpoint Dewpoint Depression Visibility Wind Speed Wind Dir Waves Ship Positions

Rheinfels

Last reported at 2014-Sep-01 18:26 UTC. Time now 2014-Sep-01 21:14 UTC.
Position N 38°02' E 023°35'.

Length 89 m; draft 5.5 m.

Type: Cargo ship. MMSI: 304010767.

Date/timePositionNaut miles runAvg speedWind from/ knotsBaromVisibWave heightAir tempDewpointWater temp
2014-Sep-01 18:26N 38°02' E 023°35'0 0.0
2014-Sep-01 17:32N 38°02' E 023°35'2 0.4
2014-Sep-01 13:17N 38°01' E 023°34'5 6.7
2014-Sep-01 12:33N 37°56' E 023°36'8 7.7
2014-Sep-01 11:33N 37°49' E 023°40'8 8.2
2014-Sep-01 10:33N 37°42' E 023°45'  
2014-Aug-29 22:27N 36°39' E 014°32'8 9.0
2014-Aug-29 21:33N 36°41' E 014°22'9 8.9
2014-Aug-29 20:33N 36°43' E 014°12'46 8.6
2014-Aug-29 15:12N 36°55' E 013°16'9 8.8
2014-Aug-29 14:10N 36°57' E 013°05'130 8.8
2014-Aug-28 23:26N 37°31' E 010°28'8 9.2
2014-Aug-28 22:33N 37°32' E 010°17'9 9.2
2014-Aug-28 21:33N 37°33' E 010°06'9 9.2
2014-Aug-28 20:33N 37°34' E 009°54'9 9.2
2014-Aug-28 19:32N 37°34' E 009°43'28 9.1
2014-Aug-28 16:26N 37°36' E 009°07'99 9.1
2014-Aug-28 05:33N 37°35' E 007°02'9 9.1
2014-Aug-28 04:33N 37°34' E 006°51'10 9.0
2014-Aug-28 03:25N 37°34' E 006°38'19 8.6
2014-Aug-28 01:12N 37°33' E 006°14'6 8.1
2014-Aug-28 00:25N 37°34' E 006°06'18 8.1
2014-Aug-27 22:08N 37°34' E 005°42'22 8.1
2014-Aug-27 19:22N 37°33' E 005°14'49 7.9
2014-Aug-27 13:10N 37°32' E 004°13'5 8.7
2014-Aug-27 12:33N 37°32' E 004°06'11 8.9
2014-Aug-27 11:20N 37°32' E 003°52'7 9.0
2014-Aug-27 10:32N 37°32' E 003°43'9 8.9
2014-Aug-27 09:32N 37°32' E 003°32'20 9.6
2014-Aug-27 07:26N 37°32' E 003°07'10 9.2
2014-Aug-27 06:19N 37°31' E 002°54'7 8.8
2014-Aug-27 05:31N 37°31' E 002°45'9 9.0
2014-Aug-27 04:32N 37°30' E 002°34'9 9.0
2014-Aug-27 03:33N 37°30' E 002°23'9 8.8
2014-Aug-27 02:32N 37°30' E 002°11'20 9.0
2014-Aug-27 00:17N 37°30' E 001°46'7 9.1
2014-Aug-26 23:33N 37°30' E 001°38'9 8.8
2014-Aug-26 22:33N 37°29' E 001°26'9 9.0
2014-Aug-26 21:33N 37°29' E 001°15'9 9.1
2014-Aug-26 20:33N 37°29' E 001°04'9 8.8
2014-Aug-26 19:33N 37°29' E 000°53'9 8.7
2014-Aug-26 18:33N 37°29' E 000°42'9 8.8
2014-Aug-26 17:33N 37°29' E 000°31'9 8.9
2014-Aug-26 16:33N 37°29' E 000°19'9 8.9
2014-Aug-26 15:33N 37°29' E 000°08'9 8.8
2014-Aug-26 14:33N 37°28' W 000°03'9 8.9
2014-Aug-26 13:33N 37°28' W 000°14'9 8.9
2014-Aug-26 12:34N 37°28' W 000°25'9 8.9
2014-Aug-26 11:33N 37°29' W 000°37'10 8.7
2014-Aug-26 10:27N 37°31' W 000°49'4 0.1
2014-Aug-24 17:34N 37°32' W 000°54'147 9.6
2014-Aug-24 02:14N 38°36' E 001°54'9 9.7
2014-Aug-24 01:16N 38°41' E 002°05'19 9.9
2014-Aug-23 23:20N 38°50' E 002°26'8 9.8
2014-Aug-23 22:33N 38°53' E 002°35'10 9.7
2014-Aug-23 21:33N 38°58' E 002°46'10 9.6
2014-Aug-23 20:33N 39°02' E 002°57'9 9.5
2014-Aug-23 19:33N 39°06' E 003°08'  

Dump ship's entire track history